User: anonymous
Location: Clinton NY
(43.0598°N, 75.3602°W)
Time: 14:56:03
(UTC-04:00)
Language:

Cosmos-2242 - Orbit

View from above orbital plane
View from above orbital plane
View from above satellite
View from above satellite

Ground track
Ground track

The orbit data is extracted from the following two-line orbital elements,

1 22626U 93024A   14235.29184296  .00000534  00000-0  58231-4 0  1764
2 22626 082.5217 290.9746 0018068 293.5571 066.3747 14.85985291153236
Epoch (UTC): 23 August 2014 07:00:15
Eccentricity: 0.0018068
inclination: 82.5217°
perigee height: 598 km
apogee height: 623 km
right ascension of ascending node: 290.9746°
argument of perigee: 293.5571°
revolutions per day: 14.85985291
mean anomaly at epoch: 66.3747°
orbit number at epoch: 15323

The dashed part of the orbit path shows where the satellite is in the earth's shadow,  

DLR